Hourly Weather Kozlovka

Today, 22 October, Thursday

Time Temperature Precipitation Wind Pressure Humidity
00:00 +3°C° 0.1 mm 2 mps 746 mmHg 95%
01:00 +2°C° 0.1 mm 3 mps 746 mmHg 95%
02:00 +2°C° 0.1 mm 3 mps 746 mmHg 95%
03:00 +3°C° 0 mm 2 mps 746 mmHg 94%
04:00 +4°C° 0.1 mm 2 mps 746 mmHg 94%
05:00 +4°C° 0.1 mm 2 mps 746 mmHg 95%
06:00 +4°C° 0.1 mm 2 mps 746 mmHg 95%
07:00 +4°C° 0.1 mm 2 mps 746 mmHg 94%
08:00 +3°C° 0.1 mm 3 mps 746 mmHg 94%
09:00 +4°C° 0.1 mm 3 mps 745 mmHg 93%
10:00 +5°C° 0 mm 3 mps 745 mmHg 89%
11:00 +5°C° 0 mm 3 mps 745 mmHg 85%
12:00 +6°C° 0 mm 4 mps 745 mmHg 81%
13:00 +7°C° 0 mm 4 mps 745 mmHg 80%
14:00 +7°C° 0 mm 4 mps 745 mmHg 79%
15:00 +7°C° 0 mm 4 mps 745 mmHg 77%
16:00 +7°C° 0.1 mm 4 mps 744 mmHg 79%
17:00 +7°C° 0.1 mm 4 mps 743 mmHg 82%
18:00 +6°C° 0.1 mm 5 mps 742 mmHg 84%
19:00 +6°C° 0.7 mm 5 mps 742 mmHg 86%
20:00 +5°C° 0.7 mm 6 mps 741 mmHg 88%
21:00 +5°C° 0.7 mm 6 mps 741 mmHg 90%
22:00 +5°C° 0 mm 6 mps 740 mmHg 89%
23:00 +6°C° 0 mm 5 mps 739 mmHg 88%

Tomorrow, 23 October, Friday

Time Temperature Precipitation Wind Pressure Humidity
00:00 +6°C° 0 mm 5 mps 739 mmHg 87%
01:00 +7°C° 0 mm 6 mps 738 mmHg 88%
02:00 +7°C° 0 mm 6 mps 738 mmHg 88%
03:00 +8°C° 0 mm 6 mps 738 mmHg 89%
04:00 +8°C° 0.1 mm 6 mps 738 mmHg 88%
05:00 +9°C° 0.1 mm 7 mps 737 mmHg 87%
06:00 +10°C° 0.1 mm 7 mps 737 mmHg 86%
07:00 +10°C° 0 mm 7 mps 737 mmHg 84%
08:00 +10°C° 0 mm 7 mps 738 mmHg 83%
09:00 +10°C° 0 mm 6 mps 738 mmHg 82%
10:00 +11°C° 0 mm 7 mps 738 mmHg 81%
11:00 +11°C° 0 mm 7 mps 738 mmHg 80%
12:00 +11°C° 0 mm 7 mps 739 mmHg 79%
13:00 +11°C° 0 mm 7 mps 739 mmHg 78%
14:00 +11°C° 0 mm 7 mps 739 mmHg 77%
15:00 +11°C° 0 mm 7 mps 739 mmHg 76%
16:00 +10°C° 0 mm 6 mps 738 mmHg 80%
17:00 +10°C° 0 mm 5 mps 738 mmHg 84%
18:00 +10°C° 0 mm 4 mps 738 mmHg 88%
19:00 +10°C° 1.1 mm 5 mps 737 mmHg 89%
20:00 +10°C° 1.1 mm 6 mps 737 mmHg 91%
21:00 +10°C° 1.1 mm 6 mps 736 mmHg 92%
22:00 +10°C° 0.2 mm 6 mps 736 mmHg 91%
23:00 +10°C° 0.2 mm 6 mps 736 mmHg 90%

Day after tomorrow, 24 October, Saturday

Time Temperature Precipitation Wind Pressure Humidity
00:00 +10°C° 0.2 mm 6 mps 736 mmHg 88%
01:00 +10°C° 0 mm 6 mps 736 mmHg 89%
02:00 +9°C° 0 mm 6 mps 736 mmHg 90%
03:00 +9°C° 0 mm 6 mps 737 mmHg 91%
04:00 +8°C° 0 mm 5 mps 737 mmHg 92%
05:00 +8°C° 0 mm 5 mps 737 mmHg 92%
06:00 +7°C° 0 mm 5 mps 738 mmHg 93%
07:00 +8°C° 0 mm 5 mps 738 mmHg 90%
08:00 +8°C° 0 mm 4 mps 738 mmHg 86%
09:00 +8°C° 0 mm 4 mps 739 mmHg 83%
10:00 +10°C° 0 mm 4 mps 739 mmHg 79%
11:00 +10°C° 0 mm 4 mps 739 mmHg 76%
12:00 +10°C° 0 mm 4 mps 740 mmHg 72%
13:00 +10°C° 0 mm 4 mps 740 mmHg 73%
14:00 +10°C° 0 mm 4 mps 740 mmHg 73%
15:00 +10°C° 0 mm 4 mps 740 mmHg 73%
16:00 +10°C° 0 mm 3 mps 740 mmHg 76%
17:00 +9°C° 0 mm 3 mps 740 mmHg 79%
18:00 +8°C° 0 mm 2 mps 740 mmHg 82%
19:00 +8°C° 0 mm 2 mps 740 mmHg 83%
20:00 +8°C° 0 mm 2 mps 740 mmHg 84%
21:00 +8°C° 0 mm 2 mps 741 mmHg 85%
22:00 +8°C° 0 mm 2 mps 740 mmHg 86%
23:00 +8°C° 0 mm 2 mps 740 mmHg 87%

, 25 October, Sunday

Time Temperature Precipitation Wind Pressure Humidity
00:00 +8°C° 0 mm 2 mps 740 mmHg 87%
01:00 +7°C° 0.3 mm 2 mps 740 mmHg 89%
02:00 +7°C° 0.3 mm 2 mps 740 mmHg 90%
03:00 +7°C° 0.3 mm 2 mps 740 mmHg 92%
04:00 +7°C° 0.6 mm 2 mps 740 mmHg 92%
05:00 +7°C° 0.6 mm 2 mps 740 mmHg 93%
06:00 +7°C° 0.6 mm 2 mps 740 mmHg 93%
07:00 +7°C° 0 mm 3 mps 740 mmHg 91%
08:00 +7°C° 0 mm 3 mps 740 mmHg 88%
09:00 +6°C° 0 mm 4 mps 740 mmHg 86%
10:00 +7°C° 0 mm 4 mps 740 mmHg 82%
11:00 +7°C° 0 mm 4 mps 740 mmHg 78%
12:00 +8°C° 0 mm 4 mps 741 mmHg 74%
13:00 +8°C° 0.1 mm 4 mps 741 mmHg 78%
14:00 +8°C° 0.1 mm 4 mps 741 mmHg 81%
15:00 +8°C° 0.1 mm 4 mps 741 mmHg 85%
16:00 +7°C° 0.1 mm 4 mps 742 mmHg 86%
17:00 +7°C° 0.1 mm 4 mps 742 mmHg 87%
18:00 +7°C° 0.1 mm 4 mps 743 mmHg 87%
19:00 +7°C° 0 mm 4 mps 743 mmHg 87%
20:00 +6°C° 0 mm 5 mps 744 mmHg 87%
21:00 +6°C° 0 mm 5 mps 744 mmHg 87%
22:00 +6°C° 0 mm 5 mps 745 mmHg 87%
23:00 +6°C° 0 mm 4 mps 745 mmHg 86%

25 October, Sunday

Time Temperature Precipitation Wind Pressure Humidity
00:00 +8°C° 0 mm 2 mps 740 mmHg 87%
01:00 +7°C° 0.3 mm 2 mps 740 mmHg 89%
02:00 +7°C° 0.3 mm 2 mps 740 mmHg 90%
03:00 +7°C° 0.3 mm 2 mps 740 mmHg 92%
04:00 +7°C° 0.6 mm 2 mps 740 mmHg 92%
05:00 +7°C° 0.6 mm 2 mps 740 mmHg 93%
06:00 +7°C° 0.6 mm 2 mps 740 mmHg 93%
07:00 +7°C° 0 mm 3 mps 740 mmHg 91%
08:00 +7°C° 0 mm 3 mps 740 mmHg 88%
09:00 +6°C° 0 mm 4 mps 740 mmHg 86%
10:00 +7°C° 0 mm 4 mps 740 mmHg 82%
11:00 +7°C° 0 mm 4 mps 740 mmHg 78%
12:00 +8°C° 0 mm 4 mps 741 mmHg 74%
13:00 +8°C° 0.1 mm 4 mps 741 mmHg 78%
14:00 +8°C° 0.1 mm 4 mps 741 mmHg 81%
15:00 +8°C° 0.1 mm 4 mps 741 mmHg 85%
16:00 +7°C° 0.1 mm 4 mps 742 mmHg 86%
17:00 +7°C° 0.1 mm 4 mps 742 mmHg 87%
18:00 +7°C° 0.1 mm 4 mps 743 mmHg 87%
19:00 +7°C° 0 mm 4 mps 743 mmHg 87%
20:00 +6°C° 0 mm 5 mps 744 mmHg 87%
21:00 +6°C° 0 mm 5 mps 744 mmHg 87%
22:00 +6°C° 0 mm 5 mps 745 mmHg 87%
23:00 +6°C° 0 mm 4 mps 745 mmHg 86%

26 October, Monday

Time Temperature Precipitation Wind Pressure Humidity
00:00 +6°C° 0 mm 4 mps 746 mmHg 86%
01:00 +5°C° 0 mm 4 mps 746 mmHg 88%
02:00 +4°C° 0 mm 4 mps 747 mmHg 90%
03:00 +4°C° 0 mm 3 mps 747 mmHg 91%
04:00 +3°C° 0 mm 3 mps 748 mmHg 93%
05:00 +3°C° 0 mm 3 mps 748 mmHg 94%
06:00 +3°C° 0 mm 2 mps 749 mmHg 95%
07:00 +3°C° 0 mm 2 mps 749 mmHg 93%
08:00 +4°C° 0 mm 2 mps 750 mmHg 91%
09:00 +4°C° 0 mm 2 mps 750 mmHg 90%
10:00 +5°C° 0 mm 2 mps 750 mmHg 81%
11:00 +6°C° 0 mm 2 mps 751 mmHg 73%
12:00 +7°C° 0 mm 2 mps 751 mmHg 64%
13:00 +7°C° 0 mm 2 mps 751 mmHg 63%
14:00 +9°C° 0 mm 1 mps 751 mmHg 62%
15:00 +9°C° 0 mm 1 mps 751 mmHg 61%
16:00 +8°C° 0 mm 1 mps 751 mmHg 66%
17:00 +7°C° 0 mm 1 mps 751 mmHg 71%
18:00 +5°C° 0 mm 0 mps 752 mmHg 76%
19:00 +6°C° 0 mm 1 mps 752 mmHg 78%
20:00 +5°C° 0 mm 1 mps 752 mmHg 79%
21:00 +5°C° 0 mm 1 mps 752 mmHg 80%
22:00 +5°C° 0 mm 1 mps 752 mmHg 82%
23:00 +4°C° 0 mm 1 mps 753 mmHg 83%

27 October, Tuesday

Time Temperature Precipitation Wind Pressure Humidity
00:00 +3°C° 0 mm 2 mps 753 mmHg 84%
01:00 +3°C° 0 mm 2 mps 753 mmHg 84%
02:00 +3°C° 0 mm 2 mps 753 mmHg 84%
03:00 +2°C° 0 mm 2 mps 753 mmHg 84%
04:00 +2°C° 0 mm 2 mps 753 mmHg 83%
05:00 +2°C° 0 mm 2 mps 753 mmHg 83%
06:00 +2°C° 0 mm 2 mps 753 mmHg 82%
07:00 +1°C° 0 mm 3 mps 754 mmHg 81%
08:00 +2°C° 0 mm 3 mps 754 mmHg 79%
09:00 +2°C° 0 mm 3 mps 754 mmHg 78%
10:00 +3°C° 0 mm 3 mps 754 mmHg 73%
11:00 +5°C° 0 mm 4 mps 754 mmHg 69%
12:00 +6°C° 0 mm 4 mps 754 mmHg 64%
13:00 +6°C° 0 mm 4 mps 754 mmHg 63%
14:00 +7°C° 0 mm 4 mps 753 mmHg 62%
15:00 +7°C° 0 mm 4 mps 753 mmHg 61%
16:00 +6°C° 0 mm 4 mps 753 mmHg 66%
17:00 +5°C° 0 mm 3 mps 753 mmHg 71%
18:00 +4°C° 0 mm 3 mps 753 mmHg 77%
19:00 +4°C° 0 mm 3 mps 753 mmHg 76%
20:00 +4°C° 0 mm 4 mps 752 mmHg 75%
21:00 +4°C° 0 mm 4 mps 752 mmHg 75%
22:00 +4°C° 0 mm 4 mps 752 mmHg 75%
23:00 +4°C° 0 mm 4 mps 752 mmHg 75%
Show more